Location: Newark
(48.1281°N, 2.1556°W)
Time: 07:14:37
(UTC+00:00)

ISS - Visible Passes

Search period start: 17 November 2019 00:00
Search period end: 27 November 2019 00:00
Orbit: 412 x 421 km, 51.6° (Epoch: 17 November)

Date Brightness Start Highest point End Pass type
(mag) Time Alt. Az. Time Alt. Az. Time Alt. Az.
21 Nov -1.3 18:15:19 10° S 18:16:05 13° SSE 18:16:05 13° SSE visible
22 Nov -1.2 19:01:54 10° SW 19:02:51 17° SW 19:02:51 17° SW visible
23 Nov -2.7 18:13:48 10° SSW 18:16:36 31° SSE 18:16:36 31° SSE visible
24 Nov -2.1 17:25:56 10° S 17:28:32 21° SE 17:30:16 15° E visible
24 Nov -1.6 19:01:36 10° WSW 19:03:11 26° WSW 19:03:11 26° WSW visible
25 Nov -3.8 18:13:11 10° SW 18:16:31 68° SSE 18:16:47 64° ESE visible
26 Nov -3.2 17:24:55 10° SW 17:28:07 45° SSE 17:30:19 18° E visible
26 Nov -1.5 19:01:33 10° W 19:03:13 26° W 19:03:13 26° W visible
